Flight Track Log - Related Links

Times and Time Zones

All times are in EDT time to prevent confusion due to time zone crossing. See the SWA962 flight status page for this flight to view local times or setup timezone preferences in your user account.

Time Position Orientation Groundspeed Altitude Reporting Facility
EDT Latitude Longitude Course Direction KTS MPH feet Rate Location/Type
Fri 09:10:16 AM 45.5844 -122.5708 107° East 155 178 500  Level Seattle Center
Fri 09:10:58 AM 45.5756 -122.5283 107° East 184 212 1,800 2,388 Climbing Seattle Center
Fri 09:11:59 AM 45.5625 -122.4411 102° East 237 273 4,600 2,656 Climbing Seattle Center
Fri 09:13:00 AM 45.5414 -122.3386 106° East 288 331 7,200 2,871 Climbing Seattle Center
Fri 09:14:19 AM 45.4547 -122.2339 140° Southeast 291 335 11,300 3,257 Climbing Seattle Center
Fri 09:15:20 AM 45.3800 -122.1389 138° Southeast 342 394 14,800 3,223 Climbing Seattle Center
Fri 09:16:20 AM 45.3017 -122.0392 138° Southeast 366 421 17,800 2,975 Climbing Seattle Center
Fri 09:17:21 AM 45.2236 -121.9253 134° Southeast 392 451 20,800 2,727 Climbing Seattle Center
Fri 09:18:21 AM 45.1633 -121.8192 129° Southeast 405 466 23,300 2,727 Climbing Seattle Center
Fri 09:19:22 AM 45.0747 -121.6647 129° Southeast 421 484 26,300 2,479 Climbing Seattle Center
Fri 09:20:22 AM 44.9981 -121.5325 129° Southeast 434 499 28,300 1,884 Climbing Seattle Center
Fri 09:21:23 AM 44.9178 -121.3950 129° Southeast 453 521 30,100 1,736 Climbing Seattle Center
Fri 09:22:23 AM 44.8358 -121.2556 130° Southeast 462 532 31,800 1,835 Climbing Seattle Center
Fri 09:23:24 AM 44.7519 -121.1161 130° Southeast 468 539 33,800 1,835 Climbing Seattle Center
Fri 09:24:24 AM 44.6708 -120.9761 129° Southeast 466 536 35,500 1,537 Climbing Seattle Center
Fri 09:25:25 AM 44.5875 -120.8367 130° Southeast 468 539 36,900 1,426 Climbing Seattle Center
Fri 09:26:26 AM 44.4867 -120.7194 140° Southeast 467 537 38,400 1,041 Climbing Seattle Center
Fri 09:27:26 AM 44.3828 -120.6097 143° Southeast 464 534 39,000 298 Climbing Seattle Center
Fri 09:28:27 AM 44.2850 -120.5056 143° Southeast 464 534 39,000  Level Seattle Center
Fri 09:29:27 AM 44.1828 -120.4000 143° Southeast 461 531 39,000  Level Seattle Center
Fri 09:30:28 AM 44.0828 -120.2911 142° Southeast 458 527 39,000  Level Seattle Center
Fri 09:31:29 AM 43.9814 -120.1844 143° Southeast 460 529 39,000  Level Seattle Center
Fri 09:32:29 AM 43.8794 -120.0781 143° Southeast 460 529 39,000  Level Seattle Center
Fri 09:33:30 AM 43.7767 -119.9753 144° Southeast 459 528 39,000  Level Seattle Center
Fri 09:34:31 AM 43.6531 -119.8461 143° Southeast 466 536 39,000  Level Seattle Center
Fri 09:35:31 AM 43.5486 -119.7394 143° Southeast 469 540 39,000  Level Seattle Center
Fri 09:36:32 AM 43.4442 -119.6328 143° Southeast 471 542 39,000  Level Seattle Center
Fri 09:37:33 AM 43.3406 -119.5247 143° Southeast 471 542 39,000  Level Seattle Center
Fri 09:38:33 AM 43.2400 -119.4272 145° Southeast 471 542 39,000  Level Seattle Center
Fri 09:39:34 AM 43.1344 -119.3206 144° Southeast 471 542 39,000  Level Seattle Center
Fri 09:40:35 AM 43.0281 -119.2067 142° Southeast 481 554 39,000  Level Seattle Center
Fri 09:41:35 AM 42.9158 -119.1033 146° Southeast 484 557 39,000  Level Seattle Center
Fri 09:42:36 AM 42.8086 -118.9975 144° Southeast 482 555 39,000  Level Seattle Center
Fri 09:43:37 AM 42.7164 -118.8794 137° Southeast 469 540 39,000  Level Seattle Center
Fri 09:44:37 AM 42.6181 -118.7586 138° Southeast 474 545 39,000  Level Seattle Center
Fri 09:45:38 AM 42.5211 -118.6394 138° Southeast 472 543 39,000  Level Seattle Center
Fri 09:46:39 AM 42.4172 -118.5142 138° Southeast 474 545 39,000  Level Seattle Center
Fri 09:47:39 AM 42.3100 -118.3814 137° Southeast 469 540 39,000  Level Seattle Center
Fri 09:48:40 AM 42.2172 -118.2689 138° Southeast 467 537 39,000  Level Seattle Center
Fri 09:49:41 AM 42.1250 -118.1558 138° Southeast 468 539 39,000  Level Seattle Center
Fri 09:50:41 AM 42.0164 -118.0256 138° Southeast 469 540 39,000  Level Seattle Center
Fri 09:51:42 AM 41.9225 -117.9125 138° Southeast 472 543 39,000  Level Seattle Center
Fri 09:53:05 AM 41.7833 -117.7447 138° Southeast 467 537 39,000  Level Salt Lake Center
Fri 09:54:06 AM 41.6897 -117.6317 138° Southeast 473 544 39,000  Level Salt Lake Center
Fri 09:55:07 AM 41.5964 -117.5231 139° Southeast 466 536 39,000  Level Salt Lake Center
Fri 09:56:09 AM 41.4869 -117.3942 139° Southeast 468 539 39,000  Level Salt Lake Center
Fri 09:57:10 AM 41.3928 -117.2839 139° Southeast 469 540 39,000  Level Salt Lake Center
Fri 09:58:12 AM 41.2828 -117.1556 139° Southeast 470 541 39,000  Level Salt Lake Center
Fri 09:59:13 AM 41.1886 -117.0453 139° Southeast 470 541 39,000  Level Salt Lake Center
Fri 10:00:14 AM 41.0944 -116.9344 138° Southeast 471 542 39,000  Level Salt Lake Center
Fri 10:01:16 AM 40.9833 -116.8075 139° Southeast 470 541 39,000  Level Salt Lake Center
Fri 10:02:17 AM 40.8881 -116.6978 139° Southeast 472 543 39,000  Level Salt Lake Center
Fri 10:03:19 AM 40.7928 -116.5878 139° Southeast 472 543 39,000  Level Salt Lake Center
Fri 10:04:20 AM 40.6792 -116.4594 139° Southeast 475 547 39,000  Level Salt Lake Center
Fri 10:05:22 AM 40.5839 -116.3492 139° Southeast 474 545 39,000  Level Salt Lake Center
Fri 10:06:23 AM 40.4881 -116.2411 139° Southeast 471 542 39,000  Level Salt Lake Center
Fri 10:07:24 AM 40.3756 -116.1161 140° Southeast 472 543 39,000  Level Salt Lake Center
Fri 10:08:26 AM 40.2811 -116.0097 139° Southeast 466 536 39,000  Level Salt Lake Center
Fri 10:09:27 AM 40.1700 -115.8847 139° Southeast 467 537 39,000  Level Salt Lake Center
Fri 10:10:29 AM 40.0764 -115.7769 139° Southeast 467 537 39,000  Level Salt Lake Center
Fri 10:11:30 AM 39.9792 -115.6706 140° Southeast 472 543 39,000  Level Salt Lake Center
Fri 10:12:32 AM 39.8642 -115.5492 141° Southeast 474 545 39,000  Level Salt Lake Center
Fri 10:13:33 AM 39.7681 -115.4433 140° Southeast 472 543 39,000  Level Salt Lake Center
Fri 10:14:35 AM 39.6594 -115.3189 139° Southeast 467 537 39,000  Level Salt Lake Center
Fri 10:15:36 AM 39.5631 -115.2144 140° Southeast 469 540 39,000  Level Salt Lake Center
Fri 10:16:37 AM 39.4672 -115.1111 140° Southeast 469 540 39,000  Level Salt Lake Center
Fri 10:17:39 AM 39.3536 -114.9944 142° Southeast 467 537 39,000  Level Salt Lake Center
Fri 10:18:40 AM 39.2600 -114.8925 140° Southeast 461 531 39,000  Level Salt Lake Center
Fri 10:19:42 AM 39.1503 -114.7742 140° Southeast 460 529 39,000  Level Salt Lake Center
Fri 10:20:44 AM 39.0539 -114.6669 139° Southeast 460 529 39,000  Level Salt Lake Center
Fri 10:21:45 AM 38.9550 -114.5628 141° Southeast 460 529 39,000  Level Salt Lake Center
Fri 10:22:47 AM 38.8575 -114.4569 140° Southeast 460 529 39,000  Level Salt Lake Center
Fri 10:23:48 AM 38.7572 -114.3528 141° Southeast 463 533 39,000  Level Salt Lake Center
Fri 10:24:50 AM 38.6575 -114.2486 141° Southeast 464 534 39,000  Level Salt Lake Center
Fri 10:25:52 AM 38.5564 -114.1444 141° Southeast 466 536 39,000  Level Salt Lake Center
Fri 10:26:53 AM 38.4364 -114.0178 140° Southeast 468 539 39,000  Level Salt Lake Center
Fri 10:27:55 AM 38.3347 -113.9128 141° Southeast 471 542 39,000  Level Salt Lake Center
Fri 10:28:57 AM 38.2325 -113.8064 141° Southeast 473 544 39,000  Level Salt Lake Center
Fri 10:29:59 AM 38.1292 -113.7019 142° Southeast 475 547 39,000  Level Salt Lake Center
Fri 10:31:00 AM 38.0267 -113.5972 141° Southeast 476 548 39,000  Level Salt Lake Center
Fri 10:32:02 AM 37.9242 -113.4956 142° Southeast 471 542 39,000  Level Salt Lake Center
Fri 10:33:04 AM 37.8092 -113.4250 154° Southeast 463 533 39,000  Level Salt Lake Center
Fri 10:34:06 AM 37.6714 -113.3419 154° Southeast 460 529 39,000  Level Salt Lake Center
Fri 10:35:07 AM 37.5561 -113.2722 154° Southeast 462 532 39,000 -927 Level Salt Lake Center
Fri 10:36:09 AM 37.4408 -113.2022 154° Southeast 466 536 37,100 -2,274 Descending Salt Lake Center
Fri 10:37:11 AM 37.3233 -113.1308 154° Southeast 472 543 34,300 -1,984 Descending Salt Lake Center
Fri 10:38:13 AM 37.2028 -113.0606 155° Southeast 479 551 33,000 -829 Descending Salt Lake Center
Fri 10:39:14 AM 37.0619 -112.9753 154° Southeast 476 548 32,600 -732 Descending Salt Lake Center
Fri 10:40:16 AM 36.9483 -112.9072 154° Southeast 468 539 31,500 -1,016 Descending Salt Lake Center
Fri 10:41:18 AM 36.8383 -112.8422 155° Southeast 448 516 30,500 -968 Descending Salt Lake Center
Fri 10:42:20 AM 36.7317 -112.7797 155° Southeast 434 499 29,500 -726 Descending Salt Lake Center
Fri 10:43:22 AM 36.6242 -112.7164 155° Southeast 429 494 29,000 -244 Descending Salt Lake Center
Fri 10:44:23 AM 36.5192 -112.6536 154° Southeast 423 487 29,000  Level Salt Lake Center
Fri 10:45:22 AM 36.3975 -112.5831 155° Southeast 423 487 29,000  Level Albuquerque Center
Fri 10:46:24 AM 36.2908 -112.5214 155° Southeast 424 488 29,000  Level Albuquerque Center
Fri 10:47:26 AM 36.1847 -112.4583 154° Southeast 425 489 29,000  Level Albuquerque Center
Fri 10:48:28 AM 36.0753 -112.4042 158° South 424 488 29,000  Level Albuquerque Center
Fri 10:49:30 AM 35.9622 -112.4053 180° South 409 471 29,000  Level Albuquerque Center
Fri 10:50:32 AM 35.8514 -112.4111 182° South 401 461 29,000  Level Albuquerque Center
Fri 10:51:34 AM 35.7158 -112.4178 182° South 404 465 29,000  Level Albuquerque Center
Fri 10:52:36 AM 35.6028 -112.4225 182° South 406 467 29,000  Level Albuquerque Center
Fri 10:53:52 AM 35.4650 -112.4203 179° South 412 474 29,000  Level Los Angeles Center
Fri 10:54:40 AM 35.3714 -112.3986 169° South 419 482 29,000  Level Albuquerque Center
Fri 10:55:42 AM 35.2553 -112.3744 170° South 420 483 29,000  Level Albuquerque Center
Fri 10:56:44 AM 35.1378 -112.3506 171° South 425 489 29,000  Level Albuquerque Center
Fri 10:57:46 AM 34.9983 -112.3231 171° South 423 487 29,000  Level Albuquerque Center
Fri 10:58:49 AM 34.8814 -112.2992 170° South 424 488 29,000 -768 Level Albuquerque Center
Fri 10:59:51 AM 34.7664 -112.2761 171° South 421 484 27,400 -2,081 Descending Albuquerque Center
Fri 11:00:53 AM 34.6489 -112.2525 171° South 421 484 24,700 -2,419 Descending Albuquerque Center
Fri 11:01:55 AM 34.5364 -112.2289 170° South 413 475 22,400 -2,177 Descending Albuquerque Center
Fri 11:02:57 AM 34.4297 -112.2064 170° South 396 456 20,200 -2,323 Descending Albuquerque Center
Fri 11:03:59 AM 34.3072 -112.1811 170° South 376 433 17,600 -2,274 Descending Albuquerque Center
Fri 11:05:01 AM 34.2103 -112.1611 170° South 359 413 15,500 -1,694 Descending Albuquerque Center
Fri 11:06:03 AM 34.1175 -112.1431 171° South 341 392 14,100 -1,161 Descending Albuquerque Center
Fri 11:07:05 AM 34.0350 -112.1419 179° South 297 342 13,100 -1,210 Descending Albuquerque Center
Fri 11:08:07 AM 33.9531 -112.1503 185° South 287 330 11,600 -1,500 Descending Albuquerque Center
Fri 11:09:09 AM 33.8644 -112.1642 187° South 278 320 10,000 -1,016 Descending Albuquerque Center
Fri 11:10:11 AM 33.7964 -112.1794 191° South 253 291 9,500 -774 Descending Albuquerque Center
Fri 11:11:13 AM 33.7342 -112.1922 190° South 232 267 8,400 -823 Descending Albuquerque Center
Fri 11:12:15 AM 33.6719 -112.2036 189° South 228 262 7,800 -871 Descending Albuquerque Center
Fri 11:13:17 AM 33.6072 -112.2081 183° South 232 267 6,600 -1,161 Descending Albuquerque Center
Fri 11:14:19 AM 33.5322 -112.2156 185° South 227 261 5,400 -1,210 Descending Albuquerque Center
Fri 11:15:21 AM 33.4747 -112.2006 168° South 239 275 4,100 -1,065 Descending Albuquerque Center
Fri 11:16:23 AM 33.4442 -112.1403 121° Southeast 217 250 3,200 -1,016 Descending Albuquerque Center
Fri 11:17:25 AM 33.4406 -112.0842 94° East 170 196 2,000 -912 Descending Albuquerque Center
Fri 11:18:28 AM 33.4408 -112.0372 90° East 145 167 1,300 -667 Descending Albuquerque Center
Fri 11:20:00 AM 33.4343 -112.0116 270° West  Level Estimated

Login

Don't have an account? Register now (free) for customized features, flight alerts, and more!